SCP
0 0 0 0 0 -0 -0 0 -0 -0 -0 0 0 0 -0 0 0 0 0 0 0 -0 -0 0 0 0 0 0 0 0 0 0 0 0 0 0 0 0 0 0 0 0 0 0 0 0 0 0 0 0 0 0 0 0
-0 0 0 0 0 0 0 0 0 0 0 -0 -0 -0 -0 -0 0 0 0 0 0 0 -0 0 0 0 0 0 0 0 0 0 0 0 0 0 0 0 0 0 0 0 0 0 0 0 0 0 0 0 0 0 0 0
-0 -0 0 0 0 0 0 0 0 0 0 0 0 -0 -0 0 -0 0 0 0 0 0 0 0 0 0 0 0 0 0 0 0 0 0 0 0 0 0 0 0 0 0 0 0 0 0 0 0 0 0 0 0 0 0
-0 -0 -0 -0 -0 -0 0 0 0 0 0 0 -0 -0 -0 0 0 0 0 0 0 0 0 0 0 0 0 0 0 0 0 0 0 0 0 0 0 0 0 0 0 0 0 0 0 0 0 0 0 0 0 0 0 0
-0 -0 0 -0 -0 -0 -0 -0 0 -0 -0 -0 -0 -0 -0 -0 0 0 0 0 0 0 0 0 0 0 0 0 0 0 0 0 0 0 0 0 0 0 0 0 0 0 0 0 0 0 0 0 0 0 0 0 0 0
-0 -0 -0 0 0 -0 -0 -0 -0 -0 -0 -0 -0 -0 -0 -0 -0 0 0 0 0 0 0 0 0 0 0 0 0 0 0 0 0 0 0 0 0 0 0 0 0 0 0 0 0 0 0 0 0 0 0 0 0 0
-0 -0 -0 -0 0 0 0 -0 -0 -0 -0 -0 -0 -0 -0 -0 -0 0 0 0 0 0 0 0 0 0 0 0 0 0 0 0 0 0 0 0 0 0 0 0 0 0 0 0 0 0 0 0 0 0 0 0 0 0
-0 -0 -0 -0 -0 -0 -0 0 0 -0 -0 -0 -0 -0 -0 -0 -0 0 0 0 0 0 0 0 0 0 0 0 0 0 0 0 0 0 0 0 0 0 0 0 0 0 0 0 0 0 0 0 0 0 0 -0 -0 -0
-0 -0 -0 -0 -0 -0 -0 0 0 0 -0 0 0 0 0 -0 -0 -0 -0 -0 0 0 0 0 0 0 0 0 0 0 0 0 0 0 0 0 0 0 0 0 0 0 0 0 0 -0 0 0 0 0 0 0 -0 -0
-0 -0 -0 -0 -0 -0 -0 -0 0 0 0 -0 0 -0 -0 -0 0 -0 -0 -0 0 -0 -0 0 0 0 0 0 0 0 0 0 0 0 0 0 0 0 0 0 0 0 0 0 0 0 0 0 0 0 -0 -0 -0 -0
0 -0 -0 -0 -0 -0 -0 -0 -0 0 0 -0 0 0 -0 -0 -0 -0 -0 -0 -0 0 0 0 0 0 0 0 0 0 0 0 0 0 0 0 0 0 0 0 0 0 0 -0 -0 -0 -0 -0 -0 -0 -0 -0 -0 -0
-0 -0 0 -0 -0 -0 -0 -0 -0 0 0 0 0 0 0 0 0 0 0 0 0 0 0 0 0 0 0 0 0 0 0 0 0 0 0 0 0 0 0 0 0 0 -0 -0 -0 -0 -0 -0 -0 -0 -0 -0 -0 -0
0 -0 -0 -0 -0 -0 -0 -0 0 0 0 0 0 0 0 0 0 0 0 0 0 0 0 0 0 0 0 0 0 0 0 0 0 0 0 0 0 0 0 0 0 -0 -0 -0 -0 -0 -0 -0 -0 -0 -0 -0 -0 -0
-0 0 -0 -0 -0 -0 -0 -0 -0 -0 0 0 0 0 0 0 0 0 0 0 0 0 0 0 0 0 0 0 0 0 0 0 0 0 0 0 -0 0 0 0 -0 -0 -0 -0 -0 -0 -0 -0 -0 -0 -0 -0 -0 -0
-0 -0 -0 -0 -0 -0 -0 -0 -0 -0 -0 0 -0 0 0 0 0 0 0 0 0 0 0 0 0 0 0 0 0 0 0 0 0 0 0 0 0 0 0 -0 -0 -0 -0 -0 -0 -0 -0 -0 -0 -0 -0 -0 -0 -0
-0 0 0 -0 -0 -0 -0 -0 0 0 0 0 0 0 0 0 0 0 0 0 0 0 0 0 0 0 0 0 0 0 0 0 0 0 0 0 0 0 0 0 0 0 0 0 -0 -0 -0 -0 -0 -0 -0 -0 -0 -0
0 0 -0 -0 -0 0 -0 0 0 0 0 0 0 0 0 0 0 0 0 0 0 0 0 0 0 0 0 0 0 0 0 0 0 0 0 0 0 0 0 0 0 0 0 0 0 0 0 0 0 -0 -0 -0 -0 -0
0 0 0 -0 0 0 0 0 0 0 0 0 0 0 0 0 0 0 0 0 0 0 0 0 0 0 0 0 0 0 0 0 0 0 0 0 0 0 0 0 0 0 0 0 0 0 0 0 0 0 0 -0 -0 -0
0 0 0 0 0 0 0 0 0 0 0 0 0 0 0 0 0 0 0 0 0 0 0 0 0 0 0 0 0 0 0 0 0 0 0 0 0 0 0 0 0 0 0 0 0 0 0 0 0 0 0 -0 -0 -0
0 0 0 0 0 0 0 0 0 0 0 0 0 0 0 0 0 0 0 0 0 0 0 0 0 0 0 0 0 0 0 0 0 0 0 0 0 0 0 0 0 0 0 0 0 0 0 0 0 0 0 0 -0 -0
0 0 0 0 0 0 0 0 0 0 0 0 0 0 0 0 0 0 0 0 0 0 0 0 0 0 0 0 0 0 0 0 0 0 0 0 0 0 0 0 0 0 0 0 0 0 0 0 0 0 0 0 0 0
0 0 0 0 0 0 0 0 0 0 0 0 0 0 0 0 0 0 0 0 0 0 0 0 0 0 0 0 0 0 0 0 0 0 0 0 0 0 0 0 0 0 0 0 0 0 0 0 0 0 0 0 0 0
0 0 0 0 0 0 0 0 0 0 0 0 0 0 0 0 0 0 0 0 0 0 0 0 0 0 0 0 0 0 0 0 0 0 0 0 0 0 0 0 0 0 0 0 0 0 0 0 0 0 0 0 0 0
0 0 0 0 0 0 0 0 0 0 0 0 0 0 0 0 0 0 0 0 0 0 0 0 0 0 0 0 0 0 0 0 0 0 0 0 0 0 0 0 0 0 0 0 0 0 0 0 0 0 0 0 0 0
0 0 0 0 0 0 0 0 0 0 0 0 0 0 0 0 0 0 0 0 0 0 0 0 0 0 0 0 0 0 0 0 0 0 0 0 0 0 0 0 0 0 0 0 0 0 0 0 0 0 0 0 0 0
0 0 0 0 0 0 0 0 0 0 0 0 0 0 0 0 0 0 0 0 0 0 0 0 0 0 0 0 0 0 0 0 0 0 0 0 0 0 0 0 0 0 0 0 0 0 0 0 0 0 0 0 0 0
0 0 0 0 0 0 0 0 0 0 0 0 0 0 0 0 0 0 0 0 0 0 0 0 0 0 0 0 0 0 0 0 0 0 0 0 0 0 0 0 0 0 0 0 0 0 0 0 0 0 0 0 0 0
0 0 0 0 0 0 0 0 0 0 0 0 0 0 0 0 0 0 0 0 0 0 0 0 0 0 0 0 0 0 0 0 0 0 0 0 0 0 0 0 0 0 0 0 0 0 0 0 0 0 0 0 0 0
0 0 0 0 0 0 0 0 0 0 0 0 0 0 0 0 0 0 0 0 0 0 0 0 0 0 0 0 0 0 0 0 0 0 0 0 0 0 0 0 0 0 0 0 0 0 0 0 0 0 0 0 0 0
0 0 0 0 0 0 0 0 0 0 0 0 0 0 0 0 0 0 0 0 0 0 0 0 0 0 0 0 0 0 0 0 0 0 0 0 0 0 0 0 0 0 0 0 0 0 0 0 0 0 0 0 0 0
0 0 0 0 0 0 0 0 0 0 0 0 0 0 0 0 0 0 0 0 0 0 0 0 0 0 0 0 0 0 0 0 0 0 0 0 0 0 0 0 0 0 0 0 0 0 0 0 0 0 0 0 0 0
0 0 0 0 0 0 0 0 0 0 0 0 0 0 0 0 0 0 0 0 0 0 0 0 0 0 0 0 0 0 0 0 0 0 0 0 0 0 0 0 0 0 0 0 0 0 0 0 0 0 0 0 0 0
0 0 0 0 0 0 0 0 0 0 0 0 0 0 0 0 0 0 0 0 0 0 -0 0 0 0 0 0 0 0 0 0 0 0 0 0 0 0 0 0 0 0 0 0 0 0 0 0 0 0 0 0 0 0
Wind_Speed_500mb
63 56 54 53 56 58 51 51 51 49 53 59 58 57 63 57 49 20 17 13 27 4 10 7 6 8 13 16 13 21 11 6 3 6 7 6 6 10 8 11 19 19 19 12 12 18 37 25 35 37 19 15 7 1
77 58 46 43 39 34 33 35 38 42 47 51 52 51 55 45 37 29 10 7 7 8 2 6 13 11 22 31 13 45 6 13 18 6 4 7 5 5 11 12 3 11 17 13 23 14 4 49 19 59 21 17 9 4
77 57 53 49 35 29 23 25 29 34 39 43 43 44 43 43 49 34 20 22 11 8 6 4 5 12 12 36 29 10 14 17 14 16 8 5 7 7 8 9 8 9 17 7 9 11 12 33 44 27 63 43 31 26
91 75 59 31 32 34 29 23 25 29 33 37 40 40 47 48 42 32 21 19 10 9 2 8 10 14 18 26 46 21 29 21 34 18 6 5 5 10 8 7 6 10 17 11 7 9 6 22 39 38 35 27 15 15
78 77 80 67 50 37 27 23 34 31 32 40 49 46 45 42 42 38 26 20 16 4 4 3 19 18 21 15 29 23 26 32 14 6 5 4 4 5 5 5 3 6 10 15 5 9 15 15 16 2 11 14 16 20
73 75 71 71 76 73 46 46 54 46 38 36 32 30 34 28 29 17 8 13 16 20 4 4 8 27 21 21 23 22 17 20 11 10 6 3 3 5 5 5 16 30 28 21 8 16 13 10 10 20 22 27 34 40
63 65 68 59 56 49 53 51 50 41 25 16 15 12 14 17 25 9 13 24 24 13 7 5 4 14 17 15 18 24 22 12 8 8 5 6 5 4 2 5 7 23 22 24 23 16 15 24 20 36 38 43 50 57
53 55 58 59 50 33 32 38 37 35 29 24 27 32 23 21 21 34 40 37 24 15 14 4 3 6 26 14 7 13 9 9 13 7 4 2 5 4 5 7 10 22 12 19 33 27 16 23 27 34 41 51 59 63
47 47 48 49 51 52 30 17 15 15 16 22 21 12 11 9 7 18 24 20 17 11 10 8 5 4 19 14 12 14 11 5 6 3 4 3 3 6 3 7 13 22 14 22 27 23 22 34 40 47 54 58 65 70
40 41 41 42 43 44 43 38 18 12 12 9 6 4 6 7 13 16 1 3 9 16 15 6 6 4 14 10 7 4 6 2 2 3 9 1 2 7 2 5 8 11 14 19 23 27 39 43 49 56 59 62 67 74
32 34 36 37 37 38 38 36 33 14 9 4 3 6 8 7 4 4 9 13 13 8 15 9 14 5 15 4 3 9 1 3 4 3 2 3 3 7 15 7 2 5 11 16 21 24 28 35 43 51 58 60 64 69
31 29 29 31 33 34 34 34 29 24 12 10 7 8 7 9 5 12 3 6 11 3 3 3 4 4 5 5 3 7 4 4 2 7 2 5 4 24 17 7 3 7 12 15 20 24 28 32 37 44 52 58 61 65
29 28 26 26 27 30 32 31 32 22 10 8 7 5 13 13 19 10 6 7 5 3 4 5 3 5 4 10 7 6 8 4 3 4 7 7 20 26 7 8 8 9 12 14 17 21 26 33 37 43 52 54 59 64
31 25 25 25 25 24 26 27 29 24 9 5 9 11 7 6 3 4 4 4 5 6 7 8 6 6 8 8 2 8 6 6 5 2 10 6 34 21 10 10 9 8 11 15 19 24 29 35 42 45 50 55 59 62
33 28 24 22 24 25 26 27 26 17 7 7 8 4 6 6 7 6 11 8 7 11 7 5 6 2 4 8 3 5 8 5 10 9 6 17 31 11 12 13 13 15 16 17 22 26 30 35 40 44 47 51 52 55
34 28 23 29 27 28 27 24 20 10 6 7 10 11 8 4 3 1 6 4 12 12 7 4 4 7 4 6 6 11 9 12 8 6 7 21 14 13 17 17 16 15 16 17 21 26 29 33 38 42 45 49 50 49
32 22 35 32 29 29 28 21 11 7 6 6 5 17 13 12 11 11 12 9 17 6 2 4 7 11 1 5 5 8 11 7 8 7 3 8 18 23 24 22 20 20 19 19 21 23 26 30 33 39 44 45 45 45
30 31 29 31 27 25 18 8 5 6 11 9 4 8 10 12 15 12 13 23 15 6 6 5 5 3 9 10 8 6 6 16 20 19 21 24 29 33 32 29 28 27 25 23 24 25 26 28 30 34 37 38 40 42
33 32 27 23 21 13 8 6 5 7 5 7 13 14 9 8 10 12 17 28 16 12 10 9 5 7 7 4 1 9 14 17 21 33 37 38 38 36 34 33 32 30 30 28 27 27 27 27 28 29 31 33 35 37
30 28 26 17 13 4 4 3 3 4 5 8 9 12 8 6 10 12 18 24 18 8 4 5 10 6 5 4 16 26 34 38 40 45 46 34 27 28 29 30 32 33 34 32 31 30 30 30 28 30 30 30 32 32
29 16 11 14 7 7 1 2 4 6 9 5 10 8 5 9 7 8 10 19 11 11 6 22 16 15 21 25 32 32 27 26 26 26 32 40 35 37 37 37 36 37 41 39 37 33 33 34 31 30 30 29 28 28
21 15 11 8 6 4 3 3 7 7 4 6 7 5 5 4 5 6 10 13 13 13 14 7 15 27 23 13 13 17 24 28 30 34 36 40 47 46 45 41 39 43 42 42 41 43 40 35 35 33 33 31 29 29
15 10 7 8 6 4 1 7 4 4 3 1 3 2 1 3 1 5 7 14 13 13 15 12 3 5 13 17 26 28 33 36 39 41 43 48 52 51 50 48 47 50 52 49 43 45 43 36 36 37 36 35 35 32
9 7 7 7 8 7 9 3 5 7 6 2 1 3 0 2 1 2 6 8 11 12 13 3 9 20 27 32 33 32 33 37 39 39 41 49 54 51 46 47 40 40 41 41 41 41 39 37 36 37 36 36 35 36
5 7 7 4 7 8 7 6 5 3 4 5 3 3 2 3 0 5 7 8 19 25 4 13 21 29 33 31 22 26 29 35 40 45 37 39 41 42 39 36 30 28 28 30 31 31 32 33 35 36 36 36 35 35
7 9 8 7 5 8 8 10 11 9 6 6 5 6 4 3 2 11 7 16 28 23 9 18 26 22 9 14 24 29 36 41 45 46 44 42 40 38 32 32 27 21 20 22 23 25 26 28 31 33 32 31 33 34
8 10 9 9 9 11 8 8 6 3 8 10 6 7 5 4 11 8 11 24 25 9 18 26 19 4 6 14 21 28 34 39 42 44 41 34 29 28 31 34 35 33 31 32 34 37 37 34 33 33 34 30 30 31
10 15 8 18 9 8 7 5 9 11 7 11 14 7 12 15 9 8 14 24 15 22 25 14 7 1 9 17 26 35 40 44 42 39 33 28 30 26 24 24 25 23 19 21 24 25 29 32 35 37 38 36 31 31
6 13 17 7 6 6 10 9 8 10 13 19 8 7 8 10 8 10 16 22 32 27 18 17 9 5 12 21 29 38 45 47 44 40 42 39 34 29 31 31 34 36 39 40 40 42 42 40 37 34 35 38 35 33
9 20 5 5 10 10 8 11 8 10 15 18 12 13 17 28 39 44 45 39 30 21 24 21 12 9 18 29 39 43 46 43 35 36 43 43 42 38 35 34 32 31 33 34 37 39 38 37 37 38 34 30 32 35
14 11 5 4 3 4 5 8 12 16 16 15 24 26 26 23 30 27 25 25 29 34 34 26 15 15 24 33 41 48 49 42 39 40 42 43 41 39 37 36 34 34 35 36 36 36 35 35 39 38 37 36 32 32
7 4 3 4 2 2 3 2 4 5 5 4 5 6 8 10 12 9 10 25 35 40 35 27 17 19 29 37 41 42 44 39 38 38 38 40 39 38 38 37 35 36 35 35 35 35 36 36 35 36 40 39 39 41
6 5 4 5 3 2 4 1 2 6 6 5 5 5 7 8 14 10 13 20 29 29 29 24 21 23 33 40 41 42 42 40 38 38 39 41 42 42 42 42 42 41 40 39 37 36 36 37 38 38 37 38 40 43
Wind_Direction_500mb
51 52 61 75 99 113 126 132 143 147 154 164 169 174 180 187 195 205 176 172 206 210 341 307 276 148 150 151 156 171 140 87 47 109 125 177 125 213 120 178 176 166 169 191 197 221 251 173 148 176 205 196 191 219
54 57 68 74 80 98 118 124 134 150 158 164 173 181 183 187 177 174 166 158 212 244 276 87 92 143 165 174 170 185 314 132 156 127 114 105 117 145 158 186 245 198 185 180 189 215 247 173 191 201 161 176 223 245
48 56 62 74 82 91 107 128 142 150 156 163 168 177 190 192 193 211 227 206 193 137 88 125 109 104 140 192 177 157 161 166 130 119 141 146 144 155 171 213 100 227 212 184 97 228 197 211 219 223 231 263 287 291
42 48 57 59 71 79 90 119 149 160 171 174 179 172 174 187 196 210 206 199 186 138 90 39 113 96 116 172 181 209 160 125 136 130 101 138 144 195 190 159 171 185 143 174 271 310 342 230 231 247 268 286 281 276
44 45 46 49 59 88 119 111 124 135 146 157 165 181 189 196 206 224 244 235 200 179 119 86 74 71 137 121 180 165 154 135 90 87 46 62 84 80 12 50 288 196 168 188 178 7 230 76 69 269 260 298 328 323
46 47 48 49 53 55 64 87 109 132 160 174 189 199 210 215 186 206 140 188 168 151 103 77 56 37 116 158 158 151 146 135 111 122 126 129 125 160 183 169 19 41 62 62 84 19 70 72 50 13 353 332 322 321
46 50 51 52 55 57 64 69 71 73 89 130 149 160 165 191 190 192 169 138 134 107 101 126 76 16 52 76 80 88 131 107 105 102 79 127 106 17 118 189 14 31 57 66 49 55 63 39 339 334 327 319 315 312
40 43 46 51 54 53 57 73 73 74 76 79 78 66 83 154 113 108 113 101 82 63 57 74 62 44 16 22 55 36 61 69 47 93 85 114 118 102 196 96 39 28 109 42 24 21 359 339 333 330 325 321 317 315
32 36 39 41 42 46 55 59 60 83 90 110 117 95 76 74 65 114 110 91 86 99 105 56 13 30 3 33 35 35 38 61 26 66 41 348 112 219 71 42 23 20 32 352 8 10 353 342 335 328 323 319 316 313
25 30 33 35 36 36 33 34 41 73 105 159 218 332 51 57 130 133 172 37 45 39 52 76 343 13 4 5 46 347 20 62 113 49 330 200 80 112 162 70 51 27 9 355 355 348 339 334 331 326 323 319 316 313
20 19 23 28 32 35 33 29 24 27 50 33 15 63 59 83 124 63 50 43 358 47 25 36 31 13 21 28 57 21 181 349 84 358 352 253 223 158 159 143 63 348 344 348 346 337 328 322 321 317 317 317 315 312
10 14 15 17 20 25 29 30 29 31 32 33 47 55 55 34 69 79 19 1 42 137 346 130 334 57 17 35 83 346 87 31 157 311 7 260 174 165 173 200 292 341 350 348 342 338 332 328 325 320 320 321 320 317
358 358 2 7 10 9 11 14 11 8 11 35 29 55 13 348 37 68 4 342 35 317 344 8 1 9 17 33 65 65 72 181 240 61 229 222 172 186 217 301 316 335 347 351 348 346 342 337 336 334 331 332 328 326
350 346 348 351 354 360 4 7 4 357 6 38 39 20 88 3 108 155 143 139 132 102 92 65 30 47 9 42 337 87 256 53 26 279 237 225 193 185 264 286 296 312 336 350 351 352 349 345 343 343 338 334 330 328
344 337 333 330 339 343 348 352 359 0 30 63 36 49 44 110 81 111 109 113 122 142 108 85 58 22 348 76 41 78 27 278 200 229 226 188 174 233 292 307 319 329 334 344 345 348 349 346 344 346 345 339 333 329
342 339 332 335 336 335 336 343 356 22 63 66 75 92 124 77 10 195 160 135 146 142 115 97 120 55 352 125 72 213 139 224 243 216 191 181 206 303 307 304 305 304 313 327 335 338 343 345 345 346 349 348 348 342
337 334 337 331 329 333 335 340 357 43 65 73 62 107 110 99 108 142 156 181 161 145 186 93 82 205 52 39 265 197 207 226 15 359 196 258 310 316 307 297 289 290 298 308 317 324 329 333 340 343 349 356 356 356
325 326 326 335 330 332 328 347 14 61 69 85 124 123 106 122 126 138 152 157 159 148 129 179 121 121 201 187 253 256 296 314 320 322 314 315 318 311 297 285 278 278 282 290 299 308 315 323 334 340 346 353 360 357
318 320 323 325 339 337 319 356 15 95 99 110 121 136 134 135 152 164 173 172 161 150 149 135 119 209 233 235 330 14 354 345 318 312 306 307 302 296 285 277 271 271 278 284 290 297 303 310 316 325 335 343 355 358
306 305 306 305 329 302 290 5 14 91 119 146 141 142 144 142 146 163 165 170 168 176 122 190 218 218 201 283 310 303 301 301 300 303 307 312 307 303 301 289 280 275 279 281 284 289 293 296 305 314 321 330 339 351
304 302 293 301 288 231 176 123 68 82 123 120 141 142 118 137 128 141 169 174 193 218 240 230 229 247 296 308 308 307 308 306 304 289 293 300 303 296 291 286 284 276 278 279 278 282 285 292 298 303 308 317 322 329
288 274 294 271 241 200 100 98 104 118 125 117 138 150 132 145 140 176 178 189 233 235 225 241 291 306 308 314 332 342 334 324 314 305 300 296 294 293 288 284 278 277 276 277 278 281 283 284 287 293 298 302 306 312
264 270 231 222 193 194 214 163 123 105 76 213 124 62 116 113 156 213 251 231 250 240 237 274 297 357 340 329 327 324 318 313 310 308 305 298 292 290 291 289 286 281 280 279 279 277 280 282 284 286 290 294 298 302
222 228 222 210 193 146 148 120 126 118 108 122 144 271 345 105 185 73 257 250 231 186 155 39 350 341 337 331 331 327 323 321 318 316 311 306 301 299 292 289 288 285 285 286 280 279 282 283 283 284 287 289 292 295
205 225 197 197 166 125 156 145 146 177 192 161 174 229 207 150 353 230 235 251 206 181 175 340 336 331 322 325 336 347 346 346 345 343 348 332 328 317 300 294 296 297 292 289 287 284 282 282 282 283 283 283 286 289
215 196 175 191 155 175 177 155 189 187 149 179 202 123 133 99 25 247 231 199 188 191 271 309 314 320 329 357 2 1 352 348 343 340 339 336 331 322 314 310 311 313 309 298 294 292 291 291 289 290 289 287 285 287
234 207 183 174 152 143 99 88 118 153 172 196 176 152 117 219 243 246 201 190 185 251 312 308 297 282 4 4 356 353 349 344 340 338 338 330 324 320 312 306 304 302 295 293 292 292 292 292 292 293 293 289 287 286
219 174 186 170 157 167 131 142 166 197 196 166 133 188 194 201 236 180 189 191 232 304 303 279 206 259 353 350 348 346 343 340 337 338 344 341 339 328 323 327 325 319 313 313 313 312 309 305 301 290 284 284 282 280
171 164 145 128 131 181 207 191 205 183 182 175 177 230 242 227 219 237 222 267 288 291 255 203 205 301 339 343 342 342 341 339 335 335 341 344 346 345 339 328 315 304 297 294 295 301 302 302 299 298 290 283 281 279
177 166 152 154 160 200 181 197 200 204 204 216 246 271 273 275 286 284 279 274 273 245 205 204 218 294 330 335 338 339 341 339 334 332 332 335 333 333 328 319 313 317 320 315 307 299 292 291 298 292 293 288 279 277
155 164 112 126 113 177 203 222 249 258 259 253 253 260 273 291 294 289 262 243 214 205 203 207 235 299 327 331 330 332 337 337 333 331 329 331 332 332 328 326 322 315 310 307 309 316 314 300 286 291 286 283 284 282
138 143 127 149 160 192 250 213 295 292 288 277 270 259 283 282 274 263 243 213 206 206 208 220 253 297 313 322 323 324 328 329 325 325 326 327 329 329 328 327 323 318 316 314 310 307 306 307 307 297 289 290 287 283
111 126 115 101 99 200 192 346 355 324 269 276 263 268 254 260 253 251 248 232 224 225 222 238 261 290 311 316 317 322 323 324 326 327 328 329 329 329 329 327 325 322 317 315 312 308 306 302 299 298 299 297 293 289
Wind_Speed_850mb
63 56 54 53 56 58 51 51 51 49 53 59 58 57 63 57 49 20 17 13 27 4 10 7 6 8 13 16 13 21 11 6 3 6 7 6 6 10 8 11 19 19 19 12 12 18 37 25 35 37 19 15 7 1
77 58 46 43 39 34 33 35 38 42 47 51 52 51 55 45 37 29 10 7 7 8 2 6 13 11 22 31 13 45 6 13 18 6 4 7 5 5 11 12 3 11 17 13 23 14 4 49 19 59 21 17 9 4
77 57 53 49 35 29 23 25 29 34 39 43 43 44 43 43 49 34 20 22 11 8 6 4 5 12 12 36 29 10 14 17 14 16 8 5 7 7 8 9 8 9 17 7 9 11 12 33 44 27 63 43 31 26
91 75 59 31 32 34 29 23 25 29 33 37 40 40 47 48 42 32 21 19 10 9 2 8 10 14 18 26 46 21 29 21 34 18 6 5 5 10 8 7 6 10 17 11 7 9 6 22 39 38 35 27 15 15
78 77 80 67 50 37 27 23 34 31 32 40 49 46 45 42 42 38 26 20 16 4 4 3 19 18 21 15 29 23 26 32 14 6 5 4 4 5 5 5 3 6 10 15 5 9 15 15 16 2 11 14 16 20
73 75 71 71 76 73 46 46 54 46 38 36 32 30 34 28 29 17 8 13 16 20 4 4 8 27 21 21 23 22 17 20 11 10 6 3 3 5 5 5 16 30 28 21 8 16 13 10 10 20 22 27 34 40
63 65 68 59 56 49 53 51 50 41 25 16 15 12 14 17 25 9 13 24 24 13 7 5 4 14 17 15 18 24 22 12 8 8 5 6 5 4 2 5 7 23 22 24 23 16 15 24 20 36 38 43 50 57
53 55 58 59 50 33 32 38 37 35 29 24 27 32 23 21 21 34 40 37 24 15 14 4 3 6 26 14 7 13 9 9 13 7 4 2 5 4 5 7 10 22 12 19 33 27 16 23 27 34 41 51 59 63
47 47 48 49 51 52 30 17 15 15 16 22 21 12 11 9 7 18 24 20 17 11 10 8 5 4 19 14 12 14 11 5 6 3 4 3 3 6 3 7 13 22 14 22 27 23 22 34 40 47 54 58 65 70
40 41 41 42 43 44 43 38 18 12 12 9 6 4 6 7 13 16 1 3 9 16 15 6 6 4 14 10 7 4 6 2 2 3 9 1 2 7 2 5 8 11 14 19 23 27 39 43 49 56 59 62 67 74
32 34 36 37 37 38 38 36 33 14 9 4 3 6 8 7 4 4 9 13 13 8 15 9 14 5 15 4 3 9 1 3 4 3 2 3 3 7 15 7 2 5 11 16 21 24 28 35 43 51 58 60 64 69
31 29 29 31 33 34 34 34 29 24 12 10 7 8 7 9 5 12 3 6 11 3 3 3 4 4 5 5 3 7 4 4 2 7 2 5 4 24 17 7 3 7 12 15 20 24 28 32 37 44 52 58 61 65
29 28 26 26 27 30 32 31 32 22 10 8 7 5 13 13 19 10 6 7 5 3 4 5 3 5 4 10 7 6 8 4 3 4 7 7 20 26 7 8 8 9 12 14 17 21 26 33 37 43 52 54 59 64
31 25 25 25 25 24 26 27 29 24 9 5 9 11 7 6 3 4 4 4 5 6 7 8 6 6 8 8 2 8 6 6 5 2 10 6 34 21 10 10 9 8 11 15 19 24 29 35 42 45 50 55 59 62
33 28 24 22 24 25 26 27 26 17 7 7 8 4 6 6 7 6 11 8 7 11 7 5 6 2 4 8 3 5 8 5 10 9 6 17 31 11 12 13 13 15 16 17 22 26 30 35 40 44 47 51 52 55
34 28 23 29 27 28 27 24 20 10 6 7 10 11 8 4 3 1 6 4 12 12 7 4 4 7 4 6 6 11 9 12 8 6 7 21 14 13 17 17 16 15 16 17 21 26 29 33 38 42 45 49 50 49
32 22 35 32 29 29 28 21 11 7 6 6 5 17 13 12 11 11 12 9 17 6 2 4 7 11 1 5 5 8 11 7 8 7 3 8 18 23 24 22 20 20 19 19 21 23 26 30 33 39 44 45 45 45
30 31 29 31 27 25 18 8 5 6 11 9 4 8 10 12 15 12 13 23 15 6 6 5 5 3 9 10 8 6 6 16 20 19 21 24 29 33 32 29 28 27 25 23 24 25 26 28 30 34 37 38 40 42
33 32 27 23 21 13 8 6 5 7 5 7 13 14 9 8 10 12 17 28 16 12 10 9 5 7 7 4 1 9 14 17 21 33 37 38 38 36 34 33 32 30 30 28 27 27 27 27 28 29 31 33 35 37
30 28 26 17 13 4 4 3 3 4 5 8 9 12 8 6 10 12 18 24 18 8 4 5 10 6 5 4 16 26 34 38 40 45 46 34 27 28 29 30 32 33 34 32 31 30 30 30 28 30 30 30 32 32
29 16 11 14 7 7 1 2 4 6 9 5 10 8 5 9 7 8 10 19 11 11 6 22 16 15 21 25 32 32 27 26 26 26 32 40 35 37 37 37 36 37 41 39 37 33 33 34 31 30 30 29 28 28
21 15 11 8 6 4 3 3 7 7 4 6 7 5 5 4 5 6 10 13 13 13 14 7 15 27 23 13 13 17 24 28 30 34 36 40 47 46 45 41 39 43 42 42 41 43 40 35 35 33 33 31 29 29
15 10 7 8 6 4 1 7 4 4 3 1 3 2 1 3 1 5 7 14 13 13 15 12 3 5 13 17 26 28 33 36 39 41 43 48 52 51 50 48 47 50 52 49 43 45 43 36 36 37 36 35 35 32
9 7 7 7 8 7 9 3 5 7 6 2 1 3 0 2 1 2 6 8 11 12 13 3 9 20 27 32 33 32 33 37 39 39 41 49 54 51 46 47 40 40 41 41 41 41 39 37 36 37 36 36 35 36
5 7 7 4 7 8 7 6 5 3 4 5 3 3 2 3 0 5 7 8 19 25 4 13 21 29 33 31 22 26 29 35 40 45 37 39 41 42 39 36 30 28 28 30 31 31 32 33 35 36 36 36 35 35
7 9 8 7 5 8 8 10 11 9 6 6 5 6 4 3 2 11 7 16 28 23 9 18 26 22 9 14 24 29 36 41 45 46 44 42 40 38 32 32 27 21 20 22 23 25 26 28 31 33 32 31 33 34
8 10 9 9 9 11 8 8 6 3 8 10 6 7 5 4 11 8 11 24 25 9 18 26 19 4 6 14 21 28 34 39 42 44 41 34 29 28 31 34 35 33 31 32 34 37 37 34 33 33 34 30 30 31
10 15 8 18 9 8 7 5 9 11 7 11 14 7 12 15 9 8 14 24 15 22 25 14 7 1 9 17 26 35 40 44 42 39 33 28 30 26 24 24 25 23 19 21 24 25 29 32 35 37 38 36 31 31
6 13 17 7 6 6 10 9 8 10 13 19 8 7 8 10 8 10 16 22 32 27 18 17 9 5 12 21 29 38 45 47 44 40 42 39 34 29 31 31 34 36 39 40 40 42 42 40 37 34 35 38 35 33
9 20 5 5 10 10 8 11 8 10 15 18 12 13 17 28 39 44 45 39 30 21 24 21 12 9 18 29 39 43 46 43 35 36 43 43 42 38 35 34 32 31 33 34 37 39 38 37 37 38 34 30 32 35
14 11 5 4 3 4 5 8 12 16 16 15 24 26 26 23 30 27 25 25 29 34 34 26 15 15 24 33 41 48 49 42 39 40 42 43 41 39 37 36 34 34 35 36 36 36 35 35 39 38 37 36 32 32
7 4 3 4 2 2 3 2 4 5 5 4 5 6 8 10 12 9 10 25 35 40 35 27 17 19 29 37 41 42 44 39 38 38 38 40 39 38 38 37 35 36 35 35 35 35 36 36 35 36 40 39 39 41
6 5 4 5 3 2 4 1 2 6 6 5 5 5 7 8 14 10 13 20 29 29 29 24 21 23 33 40 41 42 42 40 38 38 39 41 42 42 42 42 42 41 40 39 37 36 36 37 38 38 37 38 40 43
Wind_Direction_850mb
51 52 61 75 99 113 126 132 143 147 154 164 169 174 180 187 195 205 176 172 206 210 341 307 276 148 150 151 156 171 140 87 47 109 125 177 125 213 120 178 176 166 169 191 197 221 251 173 148 176 205 196 191 219
54 57 68 74 80 98 118 124 134 150 158 164 173 181 183 187 177 174 166 158 212 244 276 87 92 143 165 174 170 185 314 132 156 127 114 105 117 145 158 186 245 198 185 180 189 215 247 173 191 201 161 176 223 245
48 56 62 74 82 91 107 128 142 150 156 163 168 177 190 192 193 211 227 206 193 137 88 125 109 104 140 192 177 157 161 166 130 119 141 146 144 155 171 213 100 227 212 184 97 228 197 211 219 223 231 263 287 291
42 48 57 59 71 79 90 119 149 160 171 174 179 172 174 187 196 210 206 199 186 138 90 39 113 96 116 172 181 209 160 125 136 130 101 138 144 195 190 159 171 185 143 174 271 310 342 230 231 247 268 286 281 276
44 45 46 49 59 88 119 111 124 135 146 157 165 181 189 196 206 224 244 235 200 179 119 86 74 71 137 121 180 165 154 135 90 87 46 62 84 80 12 50 288 196 168 188 178 7 230 76 69 269 260 298 328 323
46 47 48 49 53 55 64 87 109 132 160 174 189 199 210 215 186 206 140 188 168 151 103 77 56 37 116 158 158 151 146 135 111 122 126 129 125 160 183 169 19 41 62 62 84 19 70 72 50 13 353 332 322 321
46 50 51 52 55 57 64 69 71 73 89 130 149 160 165 191 190 192 169 138 134 107 101 126 76 16 52 76 80 88 131 107 105 102 79 127 106 17 118 189 14 31 57 66 49 55 63 39 339 334 327 319 315 312
40 43 46 51 54 53 57 73 73 74 76 79 78 66 83 154 113 108 113 101 82 63 57 74 62 44 16 22 55 36 61 69 47 93 85 114 118 102 196 96 39 28 109 42 24 21 359 339 333 330 325 321 317 315
32 36 39 41 42 46 55 59 60 83 90 110 117 95 76 74 65 114 110 91 86 99 105 56 13 30 3 33 35 35 38 61 26 66 41 348 112 219 71 42 23 20 32 352 8 10 353 342 335 328 323 319 316 313
25 30 33 35 36 36 33 34 41 73 105 159 218 332 51 57 130 133 172 37 45 39 52 76 343 13 4 5 46 347 20 62 113 49 330 200 80 112 162 70 51 27 9 355 355 348 339 334 331 326 323 319 316 313
20 19 23 28 32 35 33 29 24 27 50 33 15 63 59 83 124 63 50 43 358 47 25 36 31 13 21 28 57 21 181 349 84 358 352 253 223 158 159 143 63 348 344 348 346 337 328 322 321 317 317 317 315 312
10 14 15 17 20 25 29 30 29 31 32 33 47 55 55 34 69 79 19 1 42 137 346 130 334 57 17 35 83 346 87 31 157 311 7 260 174 165 173 200 292 341 350 348 342 338 332 328 325 320 320 321 320 317
358 358 2 7 10 9 11 14 11 8 11 35 29 55 13 348 37 68 4 342 35 317 344 8 1 9 17 33 65 65 72 181 240 61 229 222 172 186 217 301 316 335 347 351 348 346 342 337 336 334 331 332 328 326
350 346 348 351 354 360 4 7 4 357 6 38 39 20 88 3 108 155 143 139 132 102 92 65 30 47 9 42 337 87 256 53 26 279 237 225 193 185 264 286 296 312 336 350 351 352 349 345 343 343 338 334 330 328
344 337 333 330 339 343 348 352 359 0 30 63 36 49 44 110 81 111 109 113 122 142 108 85 58 22 348 76 41 78 27 278 200 229 226 188 174 233 292 307 319 329 334 344 345 348 349 346 344 346 345 339 333 329
342 339 332 335 336 335 336 343 356 22 63 66 75 92 124 77 10 195 160 135 146 142 115 97 120 55 352 125 72 213 139 224 243 216 191 181 206 303 307 304 305 304 313 327 335 338 343 345 345 346 349 348 348 342
337 334 337 331 329 333 335 340 357 43 65 73 62 107 110 99 108 142 156 181 161 145 186 93 82 205 52 39 265 197 207 226 15 359 196 258 310 316 307 297 289 290 298 308 317 324 329 333 340 343 349 356 356 356
325 326 326 335 330 332 328 347 14 61 69 85 124 123 106 122 126 138 152 157 159 148 129 179 121 121 201 187 253 256 296 314 320 322 314 315 318 311 297 285 278 278 282 290 299 308 315 323 334 340 346 353 360 357
318 320 323 325 339 337 319 356 15 95 99 110 121 136 134 135 152 164 173 172 161 150 149 135 119 209 233 235 330 14 354 345 318 312 306 307 302 296 285 277 271 271 278 284 290 297 303 310 316 325 335 343 355 358
306 305 306 305 329 302 290 5 14 91 119 146 141 142 144 142 146 163 165 170 168 176 122 190 218 218 201 283 310 303 301 301 300 303 307 312 307 303 301 289 280 275 279 281 284 289 293 296 305 314 321 330 339 351
304 302 293 301 288 231 176 123 68 82 123 120 141 142 118 137 128 141 169 174 193 218 240 230 229 247 296 308 308 307 308 306 304 289 293 300 303 296 291 286 284 276 278 279 278 282 285 292 298 303 308 317 322 329
288 274 294 271 241 200 100 98 104 118 125 117 138 150 132 145 140 176 178 189 233 235 225 241 291 306 308 314 332 342 334 324 314 305 300 296 294 293 288 284 278 277 276 277 278 281 283 284 287 293 298 302 306 312
264 270 231 222 193 194 214 163 123 105 76 213 124 62 116 113 156 213 251 231 250 240 237 274 297 357 340 329 327 324 318 313 310 308 305 298 292 290 291 289 286 281 280 279 279 277 280 282 284 286 290 294 298 302
222 228 222 210 193 146 148 120 126 118 108 122 144 271 345 105 185 73 257 250 231 186 155 39 350 341 337 331 331 327 323 321 318 316 311 306 301 299 292 289 288 285 285 286 280 279 282 283 283 284 287 289 292 295
205 225 197 197 166 125 156 145 146 177 192 161 174 229 207 150 353 230 235 251 206 181 175 340 336 331 322 325 336 347 346 346 345 343 348 332 328 317 300 294 296 297 292 289 287 284 282 282 282 283 283 283 286 289
215 196 175 191 155 175 177 155 189 187 149 179 202 123 133 99 25 247 231 199 188 191 271 309 314 320 329 357 2 1 352 348 343 340 339 336 331 322 314 310 311 313 309 298 294 292 291 291 289 290 289 287 285 287
234 207 183 174 152 143 99 88 118 153 172 196 176 152 117 219 243 246 201 190 185 251 312 308 297 282 4 4 356 353 349 344 340 338 338 330 324 320 312 306 304 302 295 293 292 292 292 292 292 293 293 289 287 286
219 174 186 170 157 167 131 142 166 197 196 166 133 188 194 201 236 180 189 191 232 304 303 279 206 259 353 350 348 346 343 340 337 338 344 341 339 328 323 327 325 319 313 313 313 312 309 305 301 290 284 284 282 280
171 164 145 128 131 181 207 191 205 183 182 175 177 230 242 227 219 237 222 267 288 291 255 203 205 301 339 343 342 342 341 339 335 335 341 344 346 345 339 328 315 304 297 294 295 301 302 302 299 298 290 283 281 279
177 166 152 154 160 200 181 197 200 204 204 216 246 271 273 275 286 284 279 274 273 245 205 204 218 294 330 335 338 339 341 339 334 332 332 335 333 333 328 319 313 317 320 315 307 299 292 291 298 292 293 288 279 277
155 164 112 126 113 177 203 222 249 258 259 253 253 260 273 291 294 289 262 243 214 205 203 207 235 299 327 331 330 332 337 337 333 331 329 331 332 332 328 326 322 315 310 307 309 316 314 300 286 291 286 283 284 282
138 143 127 149 160 192 250 213 295 292 288 277 270 259 283 282 274 263 243 213 206 206 208 220 253 297 313 322 323 324 328 329 325 325 326 327 329 329 328 327 323 318 316 314 310 307 306 307 307 297 289 290 287 283
111 126 115 101 99 200 192 346 355 324 269 276 263 268 254 260 253 251 248 232 224 225 222 238 261 290 311 316 317 322 323 324 326 327 328 329 329 329 329 327 325 322 317 315 312 308 306 302 299 298 299 297 293 289